Regional Weather Roundup
Issued by NWS

Home | Current Version | Previous Version | Text Only | Print | Product List | Glossary On
Versions: 1 2 3 4 5 6 7 8 9 10 11 12 13 14 15 16 17 18 19 20 21 22 23 24 25 26 27 28 29 30 31 32 33 34 35 36 37 38 39 40 41 42 43 44 45 46 47 48 49 50
000
ASUS44 KLIX 231210
RWRLA
LOUISIANA WEATHER ROUNDUP
NATIONAL WEATHER SERVICE NEW ORLEANS LA
700 AM CDT SAT AUG 23 2014

NOTE: "FAIR" INDICATES FEW OR NO CLOUDS BELOW 12,000 FEET WITH NO
      SIGNIFICANT WEATHER AND/OR OBSTRUCTIONS TO VISIBILITY.
      SKY/WX - SKY CONDITION AND SIGNIFICANT WEATHER.
      TMP - AIR TEMPERATURE.    DP   - DEWPOINT TEMPERATURE.
      RH  - RELATIVE HUMIDITY.  PRES - PRESSURE.
      HX  - HEAT INDEX.         WCI  - WIND CHILL INDEX.

*  THESE STATIONS ARE NOT NWS OR FAA STATIONS AND ARE NOT UNDER
   NWS QUALITY CONTROL.

LAZ040-048-061>063-065-066-069-231300-
SOUTHEAST LOUISIANA

CITY           SKY/WX    TMP DP  RH WIND       PRES   REMARKS
N.O. AUDUBON     N/A     81  79  92 MISG        N/A
6HR MIN TEMP:  79; 6HR MAX TEMP:  83;

N.O. INTL ARPT PTCLDY    79  77  94 CALM      30.03R
6HR MIN TEMP:  79; 6HR MAX TEMP:  82;

N.O. LAKEFRONT CLEAR     84  77  79 NW14      30.03R
6HR MIN TEMP:  84; 6HR MAX TEMP:  85;

N.O. DOWNTOWN* FAIR      82  73  74 CALM      30.04R
6HR MIN TEMP:  82; 6HR MAX TEMP:  84;

SLIDELL        CLEAR     76  73  91 NW3       30.02S
6HR MIN TEMP:  75; 6HR MAX TEMP:  79;

BATON ROUGE    CLEAR     76  74  93 CALM      30.04R
6HR MIN TEMP:  76; 6HR MAX TEMP:  80;

BOOTHVILLE     CLEAR     82  78  88 NW5       30.03R
6HR MIN TEMP:  82; 6HR MAX TEMP:  85;

BELLE CHASSE   PTCLDY    77  73  87 CALM      30.03R
6HR MIN TEMP:  77; 6HR MAX TEMP:  82;

BOGALUSA*        N/A     76  72  87 CALM      30.05R
6HR MIN TEMP:  76; 6HR MAX TEMP:  81;

GALLIANO*      NOT AVBL
NEW ROADS*     PTSUNNY   74  73  98 CALM      30.04R
6HR MIN TEMP:  73; 6HR MAX TEMP:  77;

GONZALES*      FAIR      76  76 100 CALM      30.03S
6HR MIN TEMP:  76; 6HR MAX TEMP:  80;

HAMMOND*       CLEAR     75  73  94 CALM      30.05S
HOUMA*         CLEAR     75  73  94 CALM      30.04R
PORT FOURCHON* MOSUNNY   84  77  79 VRB7      30.05R

$$

LAZ041-044-053-054-231300-
SOUTHWEST LOUISIANA

CITY           SKY/WX    TMP DP  RH WIND       PRES   REMARKS
LAKE CHARLES   CLEAR     78  76  93 CALM      30.03R
6HR MIN TEMP:  77; 6HR MAX TEMP:  79;

LAFAYETTE      CLEAR     78  76  93 CALM      30.04R
6HR MIN TEMP:  77; 6HR MAX TEMP:  81;

PATTERSON      CLEAR     75  73  94 CALM        N/A
6HR MIN TEMP:  75; 6HR MAX TEMP:  79;

SALT POINT       N/A     82  78  88 CALM      30.03R
6HR MIN TEMP:  82; 6HR MAX TEMP:  88;

NEW IBERIA     CLEAR     77  76  96 N3        30.04R FOG
6HR MIN TEMP:  76; 6HR MAX TEMP:  80;

CHENAULT AIRPK CLEAR     77  75  94 CALM      30.04R

$$

LAZ027-028-231300-
CENTRAL LOUISIANA

CITY           SKY/WX    TMP DP  RH WIND       PRES   REMARKS
FORT POLK      CLEAR     74  73  97 CALM      30.04R
6HR MIN TEMP:  73; 6HR MAX TEMP:  79;

ALEXANDRIA INT CLEAR     73  72  96 CALM      30.03R FOG
6HR MIN TEMP:  72; 6HR MAX TEMP:  78;

ALEXANDRIA     CLEAR     73  70  90 CALM      30.04R
6HR MIN TEMP:  73; 6HR MAX TEMP:  76;


$$

LAZ001-002-231300-
NORTHWEST LOUISIANA

CITY           SKY/WX    TMP DP  RH WIND       PRES   REMARKS
SHREVEPORT     CLEAR     71  70  96 CALM      30.02S
6HR MIN TEMP:  71; 6HR MAX TEMP:  79;

BARKSDALE AFB  CLEAR     70  69  99 SE5       30.02S
6HR MIN TEMP:  70; 6HR MAX TEMP:  75;

DTN SHREVEPORT CLEAR     73  50  44 CALM      30.02S
6HR MIN TEMP:  73; 6HR MAX TEMP:  83;


$$

LAZ014-016-231300-
NORTHEAST LOUISIANA

CITY           SKY/WX    TMP DP  RH WIND       PRES   REMARKS
MONROE         CLEAR     70  69  97 CALM      30.04R FOG
6HR MIN TEMP:  69; 6HR MAX TEMP:  76;

TALLULAH       PTCLDY    70  69  97 CALM      30.03S
6HR MIN TEMP:  70; 6HR MAX TEMP:  74;


$$



USA.gov is the U.S. government's official web portal to all federal, state and local government web resources and services.